{"data":{"norad_id":56341,"intl_designator":"2023-058AA","name":"STARLINK-5543","alt_names":[],"object_type":"PAYLOAD","status":"ACTIVE","operator":null,"country":"US","launch_date":"2023-04-27","launch_site_code":"AFWTR","launch_vehicle":null,"mission":null,"orbit_class":"UNKNOWN","rcs_meters":null,"size_class":null,"mass_kg":null,"dimensions":null,"purposes":["comms"],"wikipedia_slug":null,"has_3d_model":false,"image_url":null,"decayed_at":null,"tle_current":{"epoch":"2026-05-24T23:37:35.011200Z","epoch_age_seconds":79913,"freshness":"FRESH","line1":"1 56341U 23058AA  26144.98443300 -.00012446  00000+0 -85850-3 0  9992","line2":"2 56341  97.4456 144.9383 0001977  77.5208 282.6240 15.05715444169591","mean_motion":15.05715444,"eccentricity":0.0001977,"inclination_deg":97.4456,"raan_deg":144.9383,"arg_perigee_deg":77.5208,"mean_anomaly_deg":282.624,"bstar":-0.0008585,"rev_number":16959,"period_min":95.63560005565,"perigee_km":547.94086197362,"apogee_km":550.67997468283,"semimajor_km":6927.4474183282,"source":"CELESTRAK","updated_at":"2026-05-25T13:38:18.004914Z"}}}